OK2ZI Weather Reports


Display with metric or nautical units.
time (UTC)temp
F
wind
direction
speed
MPH
gust
MPH
rain 1hr
in
rain 24hr
in
rain mn
in
humidity
%
barometer
mb
20260505082406 67 138 0.0 0.0 0.00 0.00 0.00 45 1007.0
20260505082210 67 84 8.0 8.0 0.00 0.00 0.00 45 1007.0
20260505082011 66 186 5.0 5.0 0.00 0.00 0.00 47 1007.0
20260505081814 66 156 0.0 0.0 0.00 0.00 0.00 46 1007.0
20260505081606 66 204 0.0 0.0 0.00 0.00 0.00 49 1007.0
20260505081206 65 196 8.0 8.0 0.00 0.00 0.00 47 1007.0
20260505081016 64 186 0.0 0.0 0.00 0.00 0.00 50 1007.0
20260505080807 64 196 14.0 14.0 0.00 0.00 0.00 48 1007.0
20260505080608 63 192 6.0 6.0 0.00 0.00 0.00 49 1007.0
20260505080408 63 204 0.0 0.0 0.00 0.00 0.00 51 1007.0
20260505080216 63 84 7.0 7.0 0.00 0.00 0.00 50 1007.0
20260505080024 63 114 6.0 6.0 0.00 0.00 0.00 49 1007.0
20260505075812 63 134 5.0 5.0 0.00 0.00 0.00 50 1007.0
20260505075605 62 84 6.0 6.0 0.00 0.00 0.00 50 1007.0
20260505075407 62 84 5.0 5.0 0.00 0.00 0.00 50 1007.0
20260505075011 62 126 0.0 0.0 0.00 0.00 0.00 50 1007.0
20260505074806 62 186 8.0 8.0 0.00 0.00 0.00 50 1007.0
20260505074606 62 186 0.0 0.0 0.00 0.00 0.00 50 1007.0
20260505074207 62 150 8.0 8.0 0.00 0.00 0.00 50 1007.0
20260505074011 62 186 8.0 8.0 0.00 0.00 0.00 50 1007.0
20260505073807 62 139 5.0 5.0 0.00 0.00 0.00 50 1007.0
20260505073619 62 144 7.0 7.0 0.00 0.00 0.00 49 1007.0
20260505073407 63 82 7.0 7.0 0.00 0.00 0.00 50 1007.0
20260505073207 63 90 8.0 8.0 0.00 0.00 0.00 48 1007.0
20260505073017 64 116 7.0 7.0 0.00 0.00 0.00 47 1007.0
20260505072807 64 213 9.0 9.0 0.00 0.00 0.00 46 1007.0
20260505072606 64 186 5.0 5.0 0.00 0.00 0.00 47 1007.0
20260505072406 64 120 6.0 6.0 0.00 0.00 0.00 48 1007.0
20260505072206 64 190 8.0 8.0 0.00 0.00 0.00 47 1007.0
20260505072011 64 192 9.0 9.0 0.00 0.00 0.00 47 1006.0
20260505071807 64 156 0.0 0.0 0.00 0.00 0.00 46 1006.0
20260505071634 64 157 7.0 7.0 0.00 0.00 0.00 48 1006.0
20260505071407 64 88 0.0 0.0 0.00 0.00 0.00 47 1007.0
20260505071207 64 126 5.0 5.0 0.00 0.00 0.00 46 1007.0
20260505071013 63 156 5.0 5.0 0.00 0.00 0.00 47 1007.0
20260505070806 63 162 5.0 5.0 0.00 0.00 0.00 48 1007.0
20260505070607 62 186 14.0 14.0 0.00 0.00 0.00 50 1007.0
20260505070207 62 42 5.0 5.0 0.00 0.00 0.00 47 1007.0
20260505070024 63 60 8.0 8.0 0.00 0.00 0.00 46 1007.0
20260505065607 63 114 5.0 5.0 0.00 0.00 0.00 47 1007.0
20260505065407 63 120 7.0 7.0 0.00 0.00 0.00 46 1007.0
20260505065207 63 162 5.0 5.0 0.00 0.00 0.00 47 1007.0
20260505065012 62 120 0.0 0.0 0.00 0.00 0.00 47 1007.0
20260505064807 62 107 5.0 5.0 0.00 0.00 0.00 47 1007.0
20260505064607 61 174 5.0 5.0 0.00 0.00 0.00 47 1007.0
20260505064407 61 168 5.0 5.0 0.00 0.00 0.00 48 1007.0
20260505064011 61 144 6.0 6.0 0.00 0.00 0.00 49 1007.0
20260505063806 61 151 8.0 8.0 0.00 0.00 0.00 48 1007.0
20260505063606 61 88 0.0 0.0 0.00 0.00 0.00 49 1007.0
20260505063407 61 156 8.0 8.0 0.00 0.00 0.00 49 1007.0
20260505063207 61 120 7.0 7.0 0.00 0.00 0.00 48 1007.0
20260505063015 61 126 7.0 7.0 0.00 0.00 0.00 48 1007.0
20260505062807 61 126 0.0 0.0 0.00 0.00 0.00 49 1007.0
20260505062606 60 134 6.0 6.0 0.00 0.00 0.00 48 1007.0
20260505062408 61 168 8.0 8.0 0.00 0.00 0.00 48 1007.0
20260505062206 61 151 0.0 0.0 0.00 0.00 0.00 48 1007.0
20260505062011 61 151 5.0 5.0 0.00 0.00 0.00 48 1007.0
20260505061806 61 151 0.0 0.0 0.00 0.00 0.00 48 1007.0
20260505061406 60 162 0.0 0.0 0.00 0.00 0.00 47 1007.0
20260505061206 60 90 5.0 5.0 0.00 0.00 0.00 48 1007.0
20260505060807 61 132 0.0 0.0 0.00 0.00 0.00 47 1007.0
20260505060607 61 120 0.0 0.0 0.00 0.00 0.00 47 1007.0
20260505060205 60 114 0.0 0.0 0.00 0.00 0.00 48 1007.0
20260505060021 60 102 6.0 6.0 0.00 0.00 0.00 51 1007.0
20260505055806 60 102 0.0 0.0 0.00 0.00 0.00 50 1007.0
20260505055606 60 88 0.0 0.0 0.00 0.00 0.00 50 1007.0
20260505055207 60 88 0.0 0.0 0.00 0.00 0.00 49 1007.0
20260505055011 59 87 0.0 0.0 0.00 0.00 0.00 49 1007.0
20260505054807 59 87 0.0 0.0 0.00 0.00 0.00 49 1007.0
20260505054012 60 96 6.0 6.0 0.00 0.00 0.00 49 1007.0
20260505053806 59 93 0.0 0.0 0.00 0.00 0.00 49 1007.0
20260505053206 58 84 0.0 0.0 0.00 0.00 0.00 50 1007.0
20260505053016 58 88 7.0 7.0 0.00 0.00 0.00 51 1007.0
20260505052806 58 66 7.0 7.0 0.00 0.00 0.00 51 1007.0
20260505052606 58 61 7.0 7.0 0.00 0.00 0.00 51 1007.0
20260505052207 58 61 0.0 0.0 0.00 0.00 0.00 52 1007.0
20260505052011 58 61 6.0 6.0 0.00 0.00 0.00 51 1007.0
20260505051807 58 60 5.0 5.0 0.00 0.00 0.00 50 1007.0
20260505051606 58 60 5.0 5.0 0.00 0.00 0.00 51 1007.0
20260505051407 58 61 0.0 0.0 0.00 0.00 0.00 51 1007.0
20260505051206 58 48 0.0 0.0 0.00 0.00 0.00 50 1007.0
20260505050807 56 48 6.0 6.0 0.00 0.00 0.00 52 1007.0
20260505050606 56 48 0.0 0.0 0.00 0.00 0.00 54 1007.0
20260505050406 55 48 5.0 5.0 0.00 0.00 0.00 53 1007.0
20260505041606 47 48 0.0 0.0 0.00 0.00 0.00 69 1007.0
20260505041407 47 48 0.0 0.0 0.00 0.00 0.00 70 1007.0
20260505041206 47 48 0.0 0.0 0.00 0.00 0.00 70 1007.0
20260505041011 47 48 0.0 0.0 0.00 0.00 0.00 69 1007.0
20260505040807 47 48 0.0 0.0 0.00 0.00 0.00 70 1007.0
20260505040607 47 48 0.0 0.0 0.00 0.00 0.00 69 1007.0
20260505040407 47 48 0.0 0.0 0.00 0.00 0.00 71 1007.0
20260505040207 46 48 0.0 0.0 0.00 0.00 0.00 70 1007.0
20260505040018 46 48 0.0 0.0 0.00 0.00 0.00 72 1007.0
20260505035807 46 48 0.0 0.0 0.00 0.00 0.00 72 1007.0
20260505035407 46 48 0.0 0.0 0.00 0.00 0.00 73 1007.0
20260505035207 46 48 0.0 0.0 0.00 0.00 0.00 73 1007.0
20260505035011 46 48 0.0 0.0 0.00 0.00 0.00 72 1007.0
20260505034807 47 48 0.0 0.0 0.00 0.00 0.00 70 1007.0
20260505034606 48 48 0.0 0.0 0.00 0.00 0.00 70 1007.0
20260505034207 48 48 6.0 6.0 0.00 0.00 0.00 70 1007.0
20260505034010 47 48 5.0 5.0 0.00 0.00 0.00 70 1007.0
20260505033806 47 47 8.0 8.0 0.00 0.00 0.00 69 1007.0
20260505033606 47 42 5.0 5.0 0.00 0.00 0.00 70 1007.0
20260505033406 47 42 0.0 0.0 0.00 0.00 0.00 70 1007.0
20260505033015 47 42 5.0 5.0 0.00 0.00 0.00 71 1007.0
20260505032406 47 39 7.0 7.0 0.00 0.00 0.00 69 1007.0
20260505032206 47 38 6.0 6.0 0.00 0.00 0.00 69 1007.0
20260505032010 47 32 0.0 0.0 0.00 0.00 0.00 69 1007.0
20260505031807 47 32 8.0 8.0 0.00 0.00 0.00 70 1007.0
20260505031607 47 32 5.0 5.0 0.00 0.00 0.00 72 1007.0
20260505030806 47 32 0.0 0.0 0.00 0.00 0.00 71 1007.0
20260505030606 47 32 0.0 0.0 0.00 0.00 0.00 71 1007.0
20260505030407 48 32 0.0 0.0 0.00 0.00 0.00 70 1007.0
20260505030205 48 32 0.0 0.0 0.00 0.00 0.00 69 1007.0
20260505030018 48 32 0.0 0.0 0.00 0.00 0.00 69 1007.0
20260505025807 49 32 5.0 5.0 0.00 0.00 0.00 69 1007.0
20260505025407 49 32 5.0 5.0 0.00 0.00 0.00 67 1007.0
20260505025206 48 32 7.0 7.0 0.00 0.00 0.00 67 1007.0
20260505025009 48 32 5.0 5.0 0.00 0.00 0.00 67 1007.0
20260505024806 48 32 7.0 7.0 0.00 0.00 0.00 68 1007.0
20260505024406 48 32 0.0 0.0 0.00 0.00 0.00 69 1007.0
20260505024009 49 32 6.0 6.0 0.00 0.00 0.00 68 1007.0
20260505023806 48 32 8.0 8.0 0.00 0.00 0.00 67 1007.0
20260505023605 48 31 0.0 0.0 0.00 0.00 0.00 67 1007.0
20260505023406 48 31 6.0 6.0 0.00 0.00 0.00 68 1007.0
20260505023206 48 31 0.0 0.0 0.00 0.00 0.00 69 1007.0
20260505023015 48 31 0.0 0.0 0.00 0.00 0.00 69 1007.0
20260505022806 48 31 0.0 0.0 0.00 0.00 0.00 70 1007.0
20260505022605 48 31 8.0 8.0 0.00 0.00 0.00 70 1007.0
20260505022206 48 31 7.0 7.0 0.00 0.00 0.00 69 1007.0
20260505022010 48 31 0.0 0.0 0.00 0.00 0.00 69 1007.0
20260505021806 48 31 5.0 5.0 0.00 0.00 0.00 68 1007.0
20260505021607 49 31 8.0 8.0 0.00 0.00 0.00 67 1007.0
20260505021407 49 31 8.0 8.0 0.00 0.00 0.00 67 1007.0
20260505021011 50 31 5.0 5.0 0.00 0.00 0.00 65 1008.0
20260505020806 50 31 6.0 6.0 0.00 0.00 0.00 65 1008.0
20260505020606 49 31 8.0 8.0 0.00 0.00 0.00 65 1008.0
20260505020406 49 31 0.0 0.0 0.00 0.00 0.00 65 1007.0
20260505015806 49 31 0.0 0.0 0.00 0.00 0.00 68 1007.0
20260505015606 49 31 8.0 8.0 0.00 0.00 0.00 67 1007.0
20260505015407 49 31 5.0 5.0 0.00 0.00 0.00 68 1008.0
20260505015206 48 31 0.0 0.0 0.00 0.00 0.00 68 1008.0
20260505015011 48 31 8.0 8.0 0.00 0.00 0.00 68 1008.0
20260505014806 48 31 5.0 5.0 0.00 0.00 0.00 66 1008.0
20260505014606 48 31 8.0 8.0 0.00 0.00 0.00 68 1008.0
20260505014407 48 48 7.0 7.0 0.00 0.00 0.00 69 1008.0
20260505014206 48 66 5.0 5.0 0.00 0.00 0.00 68 1008.0
20260505014011 49 66 5.0 5.0 0.00 0.00 0.00 68 1007.0
20260505013606 50 66 6.0 6.0 0.00 0.00 0.00 66 1007.0
20260505013406 50 66 0.0 0.0 0.00 0.00 0.00 65 1007.0
20260505013206 51 66 6.0 6.0 0.00 0.00 0.00 64 1007.0
20260505013014 50 66 5.0 5.0 0.00 0.00 0.00 64 1007.0
20260505012805 50 66 7.0 7.0 0.00 0.00 0.00 63 1007.0
20260505012606 50 66 5.0 5.0 0.00 0.00 0.00 63 1007.0
20260505012011 49 66 0.0 0.0 0.00 0.00 0.00 67 1008.0
20260505011806 49 66 0.0 0.0 0.00 0.00 0.00 67 1008.0
20260505011605 49 66 0.0 0.0 0.00 0.00 0.00 67 1008.0
20260505011405 49 66 0.0 0.0 0.00 0.00 0.00 67 1008.0
20260505011206 49 66 0.0 0.0 0.00 0.00 0.00 68 1008.0
20260505011011 49 66 0.0 0.0 0.00 0.00 0.00 68 1008.0
20260505010806 49 66 0.0 0.0 0.00 0.00 0.00 68 1008.0
20260505010606 49 66 0.0 0.0 0.00 0.00 0.00 68 1008.0
20260505010406 49 66 0.0 0.0 0.00 0.00 0.00 67 1008.0
20260505010206 50 66 0.0 0.0 0.00 0.00 0.00 65 1008.0
20260505010022 51 66 0.0 0.0 0.00 0.00 0.00 63 1008.0
20260505005806 51 66 0.0 0.0 0.00 0.00 0.00 61 1008.0
20260505005607 52 66 0.0 0.0 0.00 0.00 0.00 60 1008.0
20260505005406 52 66 0.0 0.0 0.00 0.00 0.00 60 1007.0
20260505005206 53 66 0.0 0.0 0.00 0.00 0.00 59 1007.0
20260505005010 53 66 5.0 5.0 0.00 0.00 0.00 58 1008.0
20260505004807 53 66 0.0 0.0 0.00 0.00 0.00 57 1008.0
20260505004606 52 66 5.0 5.0 0.00 0.00 0.00 57 1008.0
20260505004407 51 66 7.0 7.0 0.00 0.00 0.00 58 1008.0
20260505004206 51 66 8.0 8.0 0.00 0.00 0.00 59 1008.0
20260505004011 50 66 0.0 0.0 0.00 0.00 0.00 61 1008.0
20260505003606 49 66 0.0 0.0 0.00 0.00 0.00 63 1008.0
20260505003406 49 66 0.0 0.0 0.00 0.00 0.00 65 1008.0
20260505003206 49 66 0.0 0.0 0.00 0.00 0.00 66 1008.0
20260505003014 49 66 0.0 0.0 0.00 0.00 0.00 66 1008.0
20260505002806 49 66 0.0 0.0 0.00 0.00 0.00 67 1008.0
20260505002606 49 66 0.0 0.0 0.00 0.00 0.00 67 1008.0
20260505002407 49 66 0.0 0.0 0.00 0.00 0.00 67 1008.0
20260505002206 49 66 0.0 0.0 0.00 0.00 0.00 66 1008.0
20260505002010 51 66 0.0 0.0 0.00 0.00 0.00 63 1008.0
20260505001607 53 66 0.0 0.0 0.00 0.00 0.00 60 1008.0
20260505001406 53 66 0.0 0.0 0.00 0.00 0.00 58 1008.0
20260505001011 53 66 0.0 0.0 0.00 0.00 0.00 57 1008.0
20260505000807 53 66 7.0 7.0 0.00 0.00 0.00 57 1008.0
20260505000606 53 66 5.0 5.0 0.00 0.00 0.00 58 1008.0
20260505000406 52 66 0.0 0.0 0.00 0.00 0.00 58 1008.0
20260505000207 52 66 0.0 0.0 0.00 0.00 0.00 59 1008.0
20260505000018 52 66 5.0 5.0 0.00 0.00 0.00 59 1008.0
20260504235806 51 66 0.0 0.0 0.00 0.00 0.00 60 1008.0
20260504235605 51 66 0.0 0.0 0.00 0.00 0.00 61 1008.0
20260504235207 51 66 0.0 0.0 0.00 0.00 0.00 62 1008.0
20260504235009 51 66 0.0 0.0 0.00 0.00 0.00 62 1008.0
20260504234806 50 66 0.0 0.0 0.00 0.00 0.00 62 1008.0
20260504234606 50 66 0.0 0.0 0.00 0.00 0.00 63 1008.0
20260504234406 50 66 0.0 0.0 0.00 0.00 0.00 64 1008.0
20260504234207 51 66 0.0 0.0 0.00 0.00 0.00 63 1008.0
20260504234011 51 66 0.0 0.0 0.00 0.00 0.00 62 1008.0
20260504233806 52 66 0.0 0.0 0.00 0.00 0.00 61 1008.0
20260504233606 54 66 0.0 0.0 0.00 0.00 0.00 57 1008.0
20260504233406 55 66 0.0 0.0 0.00 0.00 0.00 55 1008.0
20260504233206 55 66 0.0 0.0 0.00 0.00 0.00 55 1008.0
20260504233014 55 66 0.0 0.0 0.00 0.00 0.00 55 1008.0
20260504232806 55 66 0.0 0.0 0.00 0.00 0.00 54 1008.0
20260504232406 56 66 0.0 0.0 0.00 0.00 0.00 54 1008.0
20260504232206 56 66 0.0 0.0 0.00 0.00 0.00 53 1008.0
20260504232011 56 66 5.0 5.0 0.00 0.00 0.00 53 1008.0
20260504231807 56 66 0.0 0.0 0.00 0.00 0.00 53 1008.0
20260504231606 56 66 5.0 5.0 0.00 0.00 0.00 53 1008.0
20260504231406 56 66 0.0 0.0 0.00 0.00 0.00 53 1008.0
20260504231008 56 66 6.0 6.0 0.00 0.00 0.00 53 1008.0
20260504230807 56 66 6.0 6.0 0.00 0.00 0.00 53 1008.0
20260504230606 56 66 0.0 0.0 0.00 0.00 0.00 53 1008.0
20260504230407 56 66 6.0 6.0 0.00 0.00 0.00 53 1008.0
20260504230205 57 66 0.0 0.0 0.00 0.00 0.00 53 1008.0
20260504230017 57 66 0.0 0.0 0.00 0.00 0.00 52 1008.0
20260504225605 57 66 0.0 0.0 0.00 0.00 0.00 52 1008.0
20260504225407 57 66 0.0 0.0 0.00 0.00 0.00 52 1008.0
20260504225009 57 66 0.0 0.0 0.00 0.00 0.00 52 1008.0
20260504224806 57 66 0.0 0.0 0.00 0.00 0.00 52 1008.0
20260504224606 57 66 0.0 0.0 0.00 0.00 0.00 51 1008.0
20260504224406 57 66 0.0 0.0 0.00 0.00 0.00 51 1009.0
20260504224206 57 66 5.0 5.0 0.00 0.00 0.00 51 1009.0
20260504224010 57 66 0.0 0.0 0.00 0.00 0.00 51 1009.0
20260504223807 57 66 0.0 0.0 0.00 0.00 0.00 51 1009.0
20260504223607 57 66 0.0 0.0 0.00 0.00 0.00 51 1009.0
20260504223407 57 66 0.0 0.0 0.00 0.00 0.00 51 1009.0
20260504223206 58 66 0.0 0.0 0.00 0.00 0.00 51 1009.0
20260504222606 58 66 0.0 0.0 0.00 0.00 0.00 50 1009.0
20260504222406 58 66 0.0 0.0 0.00 0.00 0.00 50 1009.0
20260504222206 58 66 6.0 6.0 0.00 0.00 0.00 50 1009.0
20260504221605 58 72 6.0 6.0 0.00 0.00 0.00 50 1009.0
20260504221406 58 72 0.0 0.0 0.00 0.00 0.00 50 1009.0
20260504221207 58 72 7.0 7.0 0.00 0.00 0.00 50 1009.0
20260504221009 59 72 5.0 5.0 0.00 0.00 0.00 49 1009.0
20260504220807 59 78 0.0 0.0 0.00 0.00 0.00 50 1009.0
20260504220605 59 78 5.0 5.0 0.00 0.00 0.00 49 1009.0
20260504220407 59 81 0.0 0.0 0.00 0.00 0.00 49 1009.0
20260504220206 59 78 0.0 0.0 0.00 0.00 0.00 50 1009.0
20260504220021 59 78 0.0 0.0 0.00 0.00 0.00 49 1009.0
20260504215606 59 78 0.0 0.0 0.00 0.00 0.00 49 1009.0
20260504215406 59 78 0.0 0.0 0.00 0.00 0.00 50 1009.0
20260504215207 59 78 0.0 0.0 0.00 0.00 0.00 50 1009.0
20260504215008 59 78 0.0 0.0 0.00 0.00 0.00 49 1009.0
20260504214806 59 78 0.0 0.0 0.00 0.00 0.00 50 1009.0
20260504214606 59 78 0.0 0.0 0.00 0.00 0.00 49 1009.0
20260504214407 59 78 0.0 0.0 0.00 0.00 0.00 49 1009.0
20260504214207 59 78 0.0 0.0 0.00 0.00 0.00 50 1009.0
20260504214010 59 78 0.0 0.0 0.00 0.00 0.00 49 1009.0
20260504213807 59 78 0.0 0.0 0.00 0.00 0.00 49 1009.0
20260504213605 59 78 0.0 0.0 0.00 0.00 0.00 49 1009.0
20260504213407 59 78 0.0 0.0 0.00 0.00 0.00 49 1009.0
20260504213206 60 78 0.0 0.0 0.00 0.00 0.00 49 1009.0
20260504213013 60 78 8.0 8.0 0.00 0.00 0.00 49 1009.0
20260504212806 60 78 0.0 0.0 0.00 0.00 0.00 49 1009.0
20260504212606 60 78 0.0 0.0 0.00 0.00 0.00 49 1009.0
20260504212406 60 78 0.0 0.0 0.00 0.00 0.00 49 1009.0
20260504212206 60 78 0.0 0.0 0.00 0.00 0.00 48 1009.0
20260504212010 60 78 0.0 0.0 0.00 0.00 0.00 48 1009.0
20260504211807 60 78 0.0 0.0 0.00 0.00 0.00 48 1009.0
20260504211607 60 78 5.0 5.0 0.00 0.00 0.00 48 1009.0
20260504211406 60 74 0.0 0.0 0.00 0.00 0.00 49 1009.0
20260504211206 60 74 6.0 6.0 0.00 0.00 0.00 49 1009.0
20260504211009 60 84 0.0 0.0 0.00 0.00 0.00 49 1009.0
20260504210806 60 84 0.0 0.0 0.00 0.00 0.00 49 1009.0
20260504210406 60 84 0.0 0.0 0.00 0.00 0.00 48 1009.0
20260504210205 60 87 5.0 5.0 0.00 0.00 0.00 48 1009.0
20260504210018 61 87 5.0 5.0 0.00 0.00 0.00 48 1009.0
20260504205804 61 84 0.0 0.0 0.00 0.00 0.00 48 1009.0
20260504205605 61 84 0.0 0.0 0.00 0.00 0.00 48 1009.0
20260504205406 61 84 0.0 0.0 0.00 0.00 0.00 47 1009.0
20260504205207 61 88 6.0 6.0 0.00 0.00 0.00 48 1009.0
20260504205011 61 88 0.0 0.0 0.00 0.00 0.00 48 1009.0
20260504204807 61 88 0.0 0.0 0.00 0.00 0.00 48 1009.0
20260504204606 61 88 5.0 5.0 0.00 0.00 0.00 48 1009.0
20260504204406 61 88 0.0 0.0 0.00 0.00 0.00 47 1009.0
20260504203806 61 88 5.0 5.0 0.00 0.00 0.00 47 1009.0
20260504203406 61 84 0.0 0.0 0.00 0.00 0.00 47 1009.0
20260504203207 61 105 0.0 0.0 0.00 0.00 0.00 47 1009.0
20260504203014 61 105 0.0 0.0 0.00 0.00 0.00 47 1009.0
20260504202806 61 105 0.0 0.0 0.00 0.00 0.00 47 1009.0
20260504202606 61 105 5.0 5.0 0.00 0.00 0.00 47 1009.0
20260504202406 61 105 5.0 5.0 0.00 0.00 0.00 47 1009.0
20260504202010 61 105 0.0 0.0 0.00 0.00 0.00 47 1009.0
20260504201807 61 105 0.0 0.0 0.00 0.00 0.00 47 1009.0
20260504201606 61 105 0.0 0.0 0.00 0.00 0.00 47 1009.0
20260504201406 61 105 0.0 0.0 0.00 0.00 0.00 47 1009.0
20260504201207 61 108 0.0 0.0 0.00 0.00 0.00 48 1009.0
20260504201009 61 108 0.0 0.0 0.00 0.00 0.00 48 1009.0
20260504200606 61 108 0.0 0.0 0.00 0.00 0.00 49 1009.0
20260504200406 61 108 0.0 0.0 0.00 0.00 0.00 49 1010.0
20260504200207 61 108 6.0 6.0 0.00 0.00 0.00 49 1010.0
20260504200018 61 108 0.0 0.0 0.00 0.00 0.00 49 1010.0
20260504195807 61 108 0.0 0.0 0.00 0.00 0.00 50 1010.0
20260504195606 61 108 0.0 0.0 0.00 0.00 0.00 50 1010.0
20260504195407 62 108 0.0 0.0 0.00 0.00 0.00 49 1009.0
20260504195206 62 108 0.0 0.0 0.00 0.00 0.00 48 1009.0
20260504194606 62 108 0.0 0.0 0.00 0.00 0.00 47 1010.0
20260504194206 62 108 6.0 6.0 0.00 0.00 0.00 47 1009.0
20260504194011 62 102 6.0 6.0 0.00 0.00 0.00 47 1010.0
20260504193606 63 102 0.0 0.0 0.00 0.00 0.00 47 1010.0
20260504193406 63 102 0.0 0.0 0.00 0.00 0.00 47 1010.0
20260504193205 63 102 8.0 8.0 0.00 0.00 0.00 47 1010.0
20260504193015 63 102 6.0 6.0 0.00 0.00 0.00 47 1010.0
20260504192807 63 102 0.0 0.0 0.00 0.00 0.00 47 1010.0
20260504192606 63 105 0.0 0.0 0.00 0.00 0.00 48 1010.0
20260504192406 63 105 0.0 0.0 0.00 0.00 0.00 48 1009.0
20260504192206 63 105 0.0 0.0 0.00 0.00 0.00 48 1009.0
20260504192012 62 105 0.0 0.0 0.00 0.00 0.00 48 1010.0
20260504191605 62 105 5.0 5.0 0.00 0.00 0.00 48 1010.0
20260504191207 61 105 0.0 0.0 0.00 0.00 0.00 48 1010.0
20260504190807 61 105 0.0 0.0 0.00 0.00 0.00 50 1010.0
20260504190606 61 105 0.0 0.0 0.00 0.00 0.00 50 1010.0
20260504190407 62 105 0.0 0.0 0.00 0.00 0.00 49 1010.0
20260504190207 62 105 0.0 0.0 0.00 0.00 0.00 49 1010.0
20260504190022 62 105 6.0 6.0 0.00 0.00 0.00 48 1010.0
20260504185407 62 105 0.0 0.0 0.00 0.00 0.00 48 1010.0
20260504185206 63 105 0.0 0.0 0.00 0.00 0.00 47 1010.0
20260504185012 63 105 0.0 0.0 0.00 0.00 0.00 46 1010.0
20260504184807 64 105 0.0 0.0 0.00 0.00 0.00 43 1010.0
20260504184608 64 105 0.0 0.0 0.00 0.00 0.00 43 1010.0
20260504184407 64 105 0.0 0.0 0.00 0.00 0.00 43 1009.0
20260504184207 64 105 0.0 0.0 0.00 0.00 0.00 43 1009.0
20260504184011 64 105 0.0 0.0 0.00 0.00 0.00 43 1009.0
20260504183807 64 105 0.0 0.0 0.00 0.00 0.00 43 1009.0
20260504183206 65 105 0.0 0.0 0.00 0.00 0.00 42 1009.0
20260504183014 65 105 0.0 0.0 0.00 0.00 0.00 41 1009.0
20260504182606 65 105 0.0 0.0 0.00 0.00 0.00 41 1009.0
20260504182207 66 103 0.0 0.0 0.00 0.00 0.00 40 1009.0
20260504182011 66 102 0.0 0.0 0.00 0.00 0.00 40 1009.0
20260504181407 66 144 0.0 0.0 0.00 0.00 0.00 40 1009.0
20260504181207 66 140 0.0 0.0 0.00 0.00 0.00 41 1009.0
20260504180805 66 140 0.0 0.0 0.00 0.00 0.00 40 1009.0
20260504180604 67 140 0.0 0.0 0.00 0.00 0.00 40 1009.0
20260504180406 67 140 0.0 0.0 0.00 0.00 0.00 40 1009.0
20260504180207 67 140 0.0 0.0 0.00 0.00 0.00 40 1009.0
20260504180022 67 140 0.0 0.0 0.00 0.00 0.00 39 1009.0
20260504175806 67 140 0.0 0.0 0.00 0.00 0.00 39 1009.0
20260504175607 68 140 0.0 0.0 0.00 0.00 0.00 39 1009.0
20260504175407 68 174 0.0 0.0 0.00 0.00 0.00 40 1009.0
20260504175206 68 174 0.0 0.0 0.00 0.00 0.00 39 1009.0
20260504175012 68 174 0.0 0.0 0.00 0.00 0.00 38 1009.0
20260504174606 68 174 0.0 0.0 0.00 0.00 0.00 38 1009.0
20260504174406 68 174 0.0 0.0 0.00 0.00 0.00 39 1009.0
20260504174210 68 174 0.0 0.0 0.00 0.00 0.00 39 1009.0
20260504174011 69 174 0.0 0.0 0.00 0.00 0.00 39 1009.0
20260504173806 69 174 0.0 0.0 0.00 0.00 0.00 38 1009.0
20260504173606 69 174 0.0 0.0 0.00 0.00 0.00 38 1009.0
20260504173406 69 174 0.0 0.0 0.00 0.00 0.00 38 1009.0
20260504173206 69 174 0.0 0.0 0.00 0.00 0.00 38 1009.0
20260504173014 70 174 5.0 5.0 0.00 0.00 0.00 37 1009.0
20260504172806 70 174 0.0 0.0 0.00 0.00 0.00 37 1009.0
20260504172607 70 174 0.0 0.0 0.00 0.00 0.00 36 1009.0
20260504172407 70 174 8.0 8.0 0.00 0.00 0.00 36 1009.0
20260504172211 71 168 0.0 0.0 0.00 0.00 0.00 36 1009.0
20260504172011 71 168 0.0 0.0 0.00 0.00 0.00 36 1009.0
20260504171807 71 174 0.0 0.0 0.00 0.00 0.00 35 1009.0
20260504171607 71 174 0.0 0.0 0.00 0.00 0.00 35 1009.0
20260504171406 71 179 5.0 5.0 0.00 0.00 0.00 35 1009.0
20260504171206 72 168 0.0 0.0 0.00 0.00 0.00 34 1009.0
20260504170806 72 186 7.0 7.0 0.00 0.00 0.00 34 1009.0
20260504170606 73 192 0.0 0.0 0.00 0.00 0.00 34 1009.0
20260504170406 73 198 0.0 0.0 0.00 0.00 0.00 33 1009.0
20260504170206 73 198 6.0 6.0 0.00 0.00 0.00 34 1009.0
20260504160406 77 180 9.0 9.0 0.00 0.00 0.00 34 1010.0
20260504160207 78 135 0.0 0.0 0.00 0.00 0.00 33 1010.0
20260504151011 77 174 9.0 9.0 0.00 0.00 0.00 35 1010.0
20260504150806 77 126 14.0 14.0 0.00 0.00 0.00 35 1010.0
20260504150406 78 120 15.0 15.0 0.00 0.00 0.00 35 1010.0
20260504150207 78 126 7.0 7.0 0.00 0.00 0.00 36 1010.0
20260504141205 78 126 8.0 8.0 0.00 0.00 0.00 36 1010.0
20260504141009 78 191 5.0 5.0 0.00 0.00 0.00 37 1010.0
20260504140806 78 150 7.0 7.0 0.00 0.00 0.00 37 1010.0
20260504140605 78 138 0.0 0.0 0.00 0.00 0.00 36 1010.0
20260504140406 79 120 7.0 7.0 0.00 0.00 0.00 36 1010.0
20260504140206 78 198 8.0 8.0 0.00 0.00 0.00 36 1010.0
20260504130805 78 180 19.0 20.0 0.00 0.00 0.00 35 1011.0
20260504130406 77 196 16.0 18.0 0.00 0.00 0.00 36 1010.0
20260504130206 77 180 26.0 30.0 0.00 0.00 0.00 37 1010.0
20260504120209 74 186 18.0 21.0 0.00 0.00 0.00 41 1012.0
20260504110608 74 195 7.0 7.0 0.00 0.00 0.00 41 1012.0
20260504110413 74 180 8.0 8.0 0.00 0.00 0.00 41 1012.0
20260504100212 69 184 6.0 6.0 0.00 0.00 0.00 47 1013.0